GW3829 Weather Reports


time (UTC)temp
C
wind
direction
speed
KPH
gust
KPH
rain 1hr
cm
rain 24hr
cm
rain mn
cm
humidity
%
barometer
mb
20260905004649 19 349 17.7 24.1 0.00 0.00 0.00 40 1011.9
20260905004144 19 358 20.9 25.7 0.00 0.00 0.00 40 1012.1
20260905003639 19 343 20.9 25.7 0.00 0.00 0.00 40 1012.0
20260905003135 19 346 24.1 27.4 0.00 0.00 0.00 40 1012.0
20260905002630 19 345 24.1 29.0 0.00 0.00 0.00 40 1012.0
20260905002120 19 339 17.7 24.1 0.00 0.00 0.00 39 1012.2
20260905001615 19 350 27.4 32.2 0.00 0.00 0.00 39 1011.9
20260905001114 20 338 22.5 32.2 0.00 0.00 0.00 38 1012.1
20260905000609 20 352 20.9 25.7 0.00 0.00 0.00 38 1012.2
20260905000106 20 354 22.5 25.7 0.00 0.00 0.00 38 1012.1
20260904235559 20 11 19.3 22.5 0.00 0.00 0.00 38 1012.3
20260904235059 20 328 24.1 29.0 0.00 0.00 0.00 38 1012.3
20260904234554 20 346 24.1 25.7 0.00 0.00 0.00 38 1012.0
20260904234051 20 343 24.1 27.4 0.00 0.00 0.00 38 1012.1
20260904233550 20 339 22.5 29.0 0.00 0.00 0.00 38 1012.2
20260904233047 20 350 19.3 24.1 0.00 0.00 0.00 38 1012.1
20260904232543 20 322 20.9 24.1 0.00 0.00 0.00 38 1012.2
20260904232039 21 332 29.0 33.8 0.00 0.00 0.00 36 1012.0
20260904231535 21 358 24.1 27.4 0.00 0.00 0.00 36 1011.9
20260904231030 20 346 19.3 24.1 0.00 0.00 0.00 36 1011.9
20260904230529 21 331 19.3 24.1 0.00 0.00 0.00 37 1012.0
20260904230025 20 333 27.4 32.2 0.00 0.00 0.00 36 1011.9
20260904225522 20 317 27.4 33.8 0.00 0.00 0.00 37 1011.8
20260904225021 20 317 19.3 24.1 0.00 0.00 0.00 38 1011.7
20260904224517 20 334 27.4 29.0 0.00 0.00 0.00 38 1011.8
20260904224017 21 318 25.7 32.2 0.00 0.00 0.00 35 1011.3
20260904223516 21 307 25.7 35.4 0.00 0.00 0.00 36 1011.3
20260904223012 21 333 32.2 37.0 0.00 0.00 0.00 35 1011.0
20260904222508 22 336 30.6 33.8 0.00 0.00 0.00 35 1011.1
20260904222008 21 317 25.7 33.8 0.00 0.00 0.00 35 1011.2
20260904221502 21 306 30.6 33.8 0.00 0.00 0.00 35 1011.1
20260904220958 21 320 30.6 37.0 0.00 0.00 0.00 35 1011.0
20260904220456 21 288 25.7 29.0 0.00 0.00 0.00 35 1011.1
20260904215952 21 321 29.0 35.4 0.00 0.00 0.00 36 1010.9
20260904215447 21 319 27.4 33.8 0.00 0.00 0.00 36 1011.0
20260904214943 21 331 32.2 37.0 0.00 0.00 0.00 36 1010.8
20260904214438 21 325 29.0 35.4 0.00 0.00 0.00 35 1010.8
20260904213933 22 339 22.5 25.7 0.00 0.00 0.00 36 1010.7
20260904213426 21 347 32.2 35.4 0.00 0.00 0.00 36 1010.7
20260904212923 22 306 17.7 24.1 0.00 0.00 0.00 36 1010.3
20260904212422 21 323 20.9 29.0 0.00 0.00 0.00 36 1010.6
20260904211918 22 311 22.5 25.7 0.00 0.00 0.00 36 1010.3
20260904211412 21 347 25.7 29.0 0.00 0.00 0.00 37 1010.1
20260904210908 21 310 24.1 29.0 0.00 0.00 0.00 37 1010.6
20260904210407 21 325 25.7 29.0 0.00 0.00 0.00 38 1010.5
20260904205903 20 311 22.5 32.2 0.00 0.00 0.00 40 1010.2
20260904205358 21 315 22.5 27.4 0.00 0.00 0.00 37 1010.1
20260904204855 21 326 24.1 27.4 0.00 0.00 0.00 39 1010.3
20260904204351 20 7 19.3 24.1 0.00 0.00 0.00 39 1009.9
20260904203847 20 345 25.7 27.4 0.00 0.00 0.00 40 1009.9
20260904203343 20 336 25.7 32.2 0.00 0.00 0.00 40 1009.9
20260904202838 21 336 29.0 35.4 0.00 0.00 0.00 39 1010.0
20260904202335 20 311 29.0 32.2 0.00 0.00 0.00 40 1009.9
20260904201830 21 322 27.4 32.2 0.00 0.00 0.00 39 1009.8
20260904201330 21 349 22.5 27.4 0.00 0.00 0.00 41 1009.7
20260904200825 20 359 27.4 29.0 0.00 0.00 0.00 41 1009.7
20260904200324 20 5 25.7 32.2 0.00 0.00 0.00 40 1009.4
20260904195819 20 347 20.9 25.7 0.00 0.00 0.00 41 1009.2
20260904195317 20 327 20.9 24.1 0.00 0.00 0.00 41 1009.0
20260904194812 20 336 20.9 25.7 0.00 0.00 0.00 41 1009.2
20260904194311 20 328 17.7 22.5 0.00 0.00 0.00 43 1009.2
20260904193807 20 323 17.7 20.9 0.00 0.00 0.00 42 1009.2
20260904193302 20 340 20.9 24.1 0.00 0.00 0.00 41 1008.9
20260904192757 20 337 19.3 22.5 0.00 0.00 0.00 41 1008.9
20260904192252 20 343 14.5 17.7 0.00 0.00 0.00 41 1009.0
20260904191749 20 18 16.1 17.7 0.00 0.00 0.00 41 1008.8
20260904191245 20 347 17.7 17.7 0.00 0.00 0.00 40 1008.8
20260904190741 20 336 9.7 12.9 0.00 0.00 0.00 40 1008.7
20260904190237 20 9 14.5 16.1 0.00 0.00 0.00 40 1008.6
20260904185733 20 330 9.7 9.7 0.00 0.00 0.00 41 1008.6
20260904185228 21 352 16.1 17.7 0.00 0.00 0.00 40 1008.8
20260904184726 20 21 11.3 12.9 0.00 0.00 0.00 42 1008.6
20260904184223 20 331 12.9 14.5 0.00 0.00 0.00 42 1008.7
20260904183718 19 344 17.7 20.9 0.00 0.00 0.00 43 1008.4
20260904183213 18 37 14.5 17.7 0.00 0.00 0.00 44 1008.7
20260904182708 19 323 16.1 17.7 0.00 0.00 0.00 43 1008.7
20260904182209 19 7 16.1 17.7 0.00 0.00 0.00 44 1008.7
20260904181704 19 3 14.5 16.1 0.00 0.00 0.00 43 1008.6
20260904181204 20 10 12.9 14.5 0.00 0.00 0.00 43 1008.4
20260904180659 20 14 11.3 14.5 0.00 0.00 0.00 44 1008.6
20260904180154 21 180 1.6 1.6 0.00 0.00 0.00 37 1008.5
20260904175653 20 234 3.2 3.2 0.00 0.00 0.00 37 1008.5
20260904175152 20 164 3.2 3.2 0.00 0.00 0.00 37 1008.2
20260904174647 20 92 4.8 4.8 0.00 0.00 0.00 37 1008.4
20260904174143 21 254 0.0 0.0 0.00 0.00 0.00 37 1008.4
20260904173638 21 253 1.6 1.6 0.00 0.00 0.00 39 1008.1
20260904173128 21 260 1.6 1.6 0.00 0.00 0.00 38 1008.1
20260904172625 20 232 4.8 4.8 0.00 0.00 0.00 38 1008.1
20260904172123 20 267 4.8 4.8 0.00 0.00 0.00 39 1008.2
20260904171619 20 228 9.7 12.9 0.00 0.00 0.00 39 1008.0
20260904171115 20 248 8.0 12.9 0.00 0.00 0.00 39 1007.9
20260904170611 20 214 8.0 9.7 0.00 0.00 0.00 39 1008.2
20260904170106 20 247 9.7 11.3 0.00 0.00 0.00 38 1007.9
20260904165604 20 242 0.0 0.0 0.00 0.00 0.00 38 1007.9
20260904165103 20 228 1.6 3.2 0.00 0.00 0.00 39 1007.8
20260904164558 20 254 3.2 3.2 0.00 0.00 0.00 39 1008.0
20260904164054 20 264 4.8 4.8 0.00 0.00 0.00 40 1007.7
20260904163549 19 276 6.4 8.0 0.00 0.00 0.00 40 1007.9
20260904163044 19 296 6.4 8.0 0.00 0.00 0.00 40 1007.9
20260904162538 18 323 4.8 4.8 0.00 0.00 0.00 42 1007.9
20260904162034 18 294 3.2 3.2 0.00 0.00 0.00 42 1007.4
20260904161529 18 325 3.2 3.2 0.00 0.00 0.00 43 1007.8
20260904161025 18 300 3.2 3.2 0.00 0.00 0.00 44 1007.8
20260904160519 17 358 4.8 4.8 0.00 0.00 0.00 44 1007.6
20260904160015 17 295 3.2 3.2 0.00 0.00 0.00 46 1007.4
20260904155509 17 324 3.2 3.2 0.00 0.00 0.00 46 1007.4
20260904155008 17 353 4.8 4.8 0.00 0.00 0.00 46 1007.3
20260904154501 17 32 6.4 8.0 0.00 0.00 0.00 46 1006.9
20260904153956 17 48 8.0 11.3 0.00 0.00 0.00 45 1006.7
20260904153451 17 23 6.4 9.7 0.00 0.00 0.00 46 1006.8
20260904152948 17 47 4.8 8.0 0.00 0.00 0.00 46 1006.8
20260904152443 17 19 11.3 12.9 0.00 0.00 0.00 46 1006.7
20260904151943 17 35 6.4 8.0 0.00 0.00 0.00 48 1006.8
20260904151438 17 20 12.9 14.5 0.00 0.00 0.00 47 1006.8
20260904150932 16 25 11.3 12.9 0.00 0.00 0.00 47 1006.7
20260904150422 16 34 8.0 9.7 0.00 0.00 0.00 47 1006.7
20260904145920 17 18 11.3 14.5 0.00 0.00 0.00 48 1006.8
20260904145417 16 3 8.0 9.7 0.00 0.00 0.00 50 1006.6
20260904144912 16 0 12.9 14.5 0.00 0.00 0.00 50 1006.4
20260904144408 15 353 9.7 11.3 0.00 0.00 0.00 52 1006.7
20260904143903 15 342 11.3 12.9 0.00 0.00 0.00 53 1006.9
20260904143359 15 323 9.7 11.3 0.00 0.00 0.00 55 1006.9
20260904142855 14 338 8.0 8.0 0.00 0.00 0.00 55 1007.0
20260904142351 13 350 6.4 8.0 0.00 0.00 0.00 57 1006.7
20260904141850 13 16 8.0 9.7 0.00 0.00 0.00 57 1006.6
20260904141346 13 2 6.4 9.7 0.00 0.00 0.00 57 1006.9
20260904140842 13 326 8.0 9.7 0.00 0.00 0.00 58 1006.7
20260904140337 13 343 8.0 9.7 0.00 0.00 0.00 59 1006.7
20260904135836 13 29 6.4 8.0 0.00 0.00 0.00 60 1006.5
20260904135331 12 9 6.4 8.0 0.00 0.00 0.00 60 1006.7
20260904134828 12 1 6.4 8.0 0.00 0.00 0.00 61 1007.0
20260904134327 12 325 6.4 8.0 0.00 0.00 0.00 61 1007.1
20260904133821 12 335 6.4 8.0 0.00 0.00 0.00 62 1006.9
20260904133317 11 317 8.0 8.0 0.00 0.00 0.00 64 1007.0
20260904132817 11 321 8.0 9.7 0.00 0.00 0.00 65 1007.0
20260904132312 11 333 8.0 9.7 0.00 0.00 0.00 66 1006.9
20260904131811 10 323 6.4 9.7 0.00 0.00 0.00 67 1006.6
20260904131308 10 2 8.0 9.7 0.00 0.00 0.00 68 1006.6
20260904130807 10 335 4.8 4.8 0.00 0.00 0.00 69 1006.6
20260904130307 10 339 6.4 8.0 0.00 0.00 0.00 69 1006.7
20260904125803 10 335 4.8 4.8 0.00 0.00 0.00 68 1006.4
20260904125259 10 4 4.8 4.8 0.00 0.00 0.00 68 1006.3
20260904124758 10 340 3.2 3.2 0.00 0.00 0.00 67 1006.5
20260904124255 10 343 4.8 4.8 0.00 0.00 0.00 67 1006.8
20260904123749 11 339 4.8 4.8 0.00 0.00 0.00 66 1006.6
20260904123244 10 349 8.0 9.7 0.00 0.00 0.00 68 1006.4
20260904122739 10 336 6.4 8.0 0.00 0.00 0.00 68 1006.5
20260904122234 10 351 4.8 4.8 0.00 0.00 0.00 68 1006.6
20260904121730 10 350 4.8 4.8 0.00 0.00 0.00 70 1006.4
20260904121225 10 325 4.8 4.8 0.00 0.00 0.00 70 1006.6
20260904120722 10 318 3.2 3.2 0.00 0.00 0.00 70 1006.6
20260904120217 10 307 4.8 4.8 0.00 0.00 0.00 68 1006.8
20260904115712 10 320 6.4 8.0 0.00 0.00 0.00 68 1006.7
20260904115207 10 323 4.8 4.8 0.00 0.00 0.00 68 1006.8
20260904114706 10 307 3.2 3.2 0.00 0.00 0.00 66 1006.7
20260904114201 11 303 3.2 4.8 0.00 0.00 0.00 65 1006.7
20260904113656 11 318 4.8 4.8 0.00 0.00 0.00 65 1006.7
20260904113154 11 332 4.8 4.8 0.00 0.00 0.00 63 1006.7
20260904112650 11 346 4.8 4.8 0.00 0.00 0.00 63 1006.5
20260904112146 11 328 3.2 3.2 0.00 0.00 0.00 64 1006.6
20260904111641 11 8 4.8 4.8 0.00 0.00 0.00 65 1006.7
20260904111136 11 328 4.8 4.8 0.00 0.00 0.00 64 1006.8
20260904110632 11 319 6.4 8.0 0.00 0.00 0.00 64 1006.7
20260904110132 11 356 4.8 4.8 0.00 0.00 0.00 63 1006.8
20260904105626 11 14 1.6 3.2 0.00 0.00 0.00 63 1006.6
20260904105121 11 304 1.6 3.2 0.00 0.00 0.00 64 1006.9
20260904104617 11 302 4.8 4.8 0.00 0.00 0.00 63 1006.9
20260904104112 11 340 4.8 4.8 0.00 0.00 0.00 64 1007.0
20260904103608 11 338 3.2 3.2 0.00 0.00 0.00 64 1006.9
20260904103104 11 298 4.8 4.8 0.00 0.00 0.00 64 1007.0
20260904102600 11 305 4.8 4.8 0.00 0.00 0.00 65 1007.1
20260904102055 11 320 6.4 8.0 0.00 0.00 0.00 66 1007.3
20260904101552 11 315 9.7 9.7 0.00 0.00 0.00 66 1007.4
20260904101047 11 308 6.4 8.0 0.00 0.00 0.00 65 1007.4
20260904100543 10 314 6.4 8.0 0.00 0.00 0.00 66 1007.4
20260904100037 10 329 6.4 8.0 0.00 0.00 0.00 68 1007.4
20260904095532 9 318 6.4 8.0 0.00 0.00 0.00 70 1007.4
20260904095028 8 312 6.4 8.0 0.00 0.00 0.00 71 1007.4
20260904094522 8 302 6.4 9.7 0.00 0.00 0.00 73 1007.4
20260904094017 8 301 4.8 4.8 0.00 0.00 0.00 74 1007.7
20260904093514 8 303 4.8 4.8 0.00 0.00 0.00 74 1007.8
20260904093009 8 296 4.8 4.8 0.00 0.00 0.00 73 1007.7
20260904092505 8 315 3.2 3.2 0.00 0.00 0.00 73 1007.4
20260904092001 9 321 6.4 8.0 0.00 0.00 0.00 70 1007.8
20260904091456 9 289 6.4 8.0 0.00 0.00 0.00 68 1007.8
20260904090950 9 307 6.4 8.0 0.00 0.00 0.00 69 1007.8
20260904090446 9 315 6.4 8.0 0.00 0.00 0.00 70 1007.9
20260904085941 9 321 6.4 8.0 0.00 0.00 0.00 69 1007.8
20260904085436 10 314 4.8 4.8 0.00 0.00 0.00 67 1008.0
20260904084936 10 305 3.2 3.2 0.00 0.00 0.00 68 1008.4
20260904084432 10 288 1.6 1.6 0.00 0.00 0.00 68 1008.1
20260904083928 10 288 1.6 1.6 0.00 0.00 0.00 69 1008.2
20260904083424 10 316 4.8 4.8 0.00 0.00 0.00 67 1008.0
20260904082920 10 309 4.8 4.8 0.00 0.00 0.00 67 1008.1
20260904082420 10 305 4.8 4.8 0.00 0.00 0.00 67 1008.1
20260904081915 10 310 3.2 3.2 0.00 0.00 0.00 67 1008.0
20260904081410 10 304 3.2 3.2 0.00 0.00 0.00 67 1008.2
20260904080906 11 310 4.8 4.8 0.00 0.00 0.00 66 1008.1
20260904080401 10 302 3.2 3.2 0.00 0.00 0.00 67 1008.2
20260904075857 11 304 4.8 4.8 0.00 0.00 0.00 64 1008.5
20260904075353 11 305 3.2 3.2 0.00 0.00 0.00 64 1008.5
20260904074851 12 296 4.8 4.8 0.00 0.00 0.00 63 1008.7
20260904074346 12 305 3.2 3.2 0.00 0.00 0.00 61 1008.6
20260904073842 12 311 4.8 4.8 0.00 0.00 0.00 60 1008.2
20260904073337 12 302 4.8 4.8 0.00 0.00 0.00 63 1008.6
20260904072833 12 288 3.2 3.2 0.00 0.00 0.00 64 1008.5
20260904072332 12 282 1.6 1.6 0.00 0.00 0.00 64 1008.5
20260904071828 12 281 3.2 3.2 0.00 0.00 0.00 64 1008.5
20260904071323 12 286 3.2 3.2 0.00 0.00 0.00 64 1008.6
20260904070818 12 283 0.0 1.6 0.00 0.00 0.00 64 1008.5
20260904070316 12 283 1.6 1.6 0.00 0.00 0.00 64 1008.5
20260904065812 12 282 0.0 1.6 0.00 0.00 0.00 64 1008.6
20260904065308 12 281 0.0 1.6 0.00 0.00 0.00 64 1008.7
20260904064803 12 294 1.6 1.6 0.00 0.00 0.00 63 1008.4
20260904064259 12 301 3.2 3.2 0.00 0.00 0.00 64 1008.6
20260904063755 12 310 4.8 4.8 0.00 0.00 0.00 63 1008.7
20260904063251 12 307 4.8 4.8 0.00 0.00 0.00 61 1008.5
20260904062746 12 312 4.8 4.8 0.00 0.00 0.00 61 1008.5
20260904062242 12 306 4.8 4.8 0.00 0.00 0.00 62 1008.6
20260904061737 12 313 4.8 8.0 0.00 0.00 0.00 61 1008.5
20260904061233 12 290 4.8 4.8 0.00 0.00 0.00 62 1008.5
20260904060730 12 313 6.4 8.0 0.00 0.00 0.00 62 1008.6
20260904060225 12 293 4.8 4.8 0.00 0.00 0.00 62 1008.5
20260904055720 12 295 4.8 4.8 0.00 0.00 0.00 62 1008.5
20260904055215 12 295 6.4 8.0 0.00 0.00 0.00 61 1008.5
20260904054711 12 295 6.4 8.0 0.00 0.00 0.00 60 1008.7
20260904054207 12 290 4.8 4.8 0.00 0.00 0.00 59 1008.8
20260904053702 13 301 4.8 4.8 0.00 0.00 0.00 58 1008.7
20260904053202 13 292 6.4 8.0 0.00 0.00 0.00 57 1009.0
20260904052658 13 273 6.4 8.0 0.00 0.00 0.00 58 1009.1
20260904052154 12 281 3.2 4.8 0.00 0.00 0.00 60 1008.9
20260904051650 12 281 3.2 3.2 0.00 0.00 0.00 59 1009.2
20260904051144 12 287 6.4 8.0 0.00 0.00 0.00 59 1009.2
20260904050640 12 267 0.0 1.6 0.00 0.00 0.00 60 1009.4
20260904050136 12 268 1.6 1.6 0.00 0.00 0.00 61 1009.4
20260904045636 12 248 1.6 1.6 0.00 0.00 0.00 62 1009.2
20260904045131 12 257 0.0 0.0 0.00 0.00 0.00 60 1009.2
20260904044626 11 268 1.6 1.6 0.00 0.00 0.00 61 1009.0
20260904044123 11 266 3.2 3.2 0.00 0.00 0.00 62 1008.9
20260904043619 11 278 3.2 3.2 0.00 0.00 0.00 61 1009.0
20260904043114 11 278 3.2 3.2 0.00 0.00 0.00 62 1009.4
20260904042610 11 285 1.6 3.2 0.00 0.00 0.00 61 1009.1
20260904042105 11 275 3.2 3.2 0.00 0.00 0.00 60 1008.9
20260904041601 11 291 4.8 4.8 0.00 0.00 0.00 61 1008.9
20260904041057 11 292 4.8 4.8 0.00 0.00 0.00 61 1009.2
20260904040557 11 271 1.6 1.6 0.00 0.00 0.00 61 1009.1
20260904040054 10 285 4.8 8.0 0.00 0.00 0.00 61 1009.0
20260904035549 10 290 4.8 4.8 0.00 0.00 0.00 62 1008.9
20260904035048 10 302 8.0 9.7 0.00 0.00 0.00 62 1008.5
20260904034543 11 298 6.4 8.0 0.00 0.00 0.00 60 1008.8
20260904034038 11 291 6.4 8.0 0.00 0.00 0.00 60 1008.9
20260904033534 11 289 6.4 8.0 0.00 0.00 0.00 58 1008.8
20260904033032 11 294 4.8 8.0 0.00 0.00 0.00 58 1009.0
20260904032527 11 299 4.8 4.8 0.00 0.00 0.00 57 1009.1
20260904032026 11 294 4.8 4.8 0.00 0.00 0.00 58 1008.9
20260904031520 11 292 8.0 8.0 0.00 0.00 0.00 57 1008.9
20260904031017 12 300 4.8 4.8 0.00 0.00 0.00 56 1009.2
20260904030512 12 271 0.0 0.0 0.00 0.00 0.00 55 1008.8
20260904030007 12 285 3.2 3.2 0.00 0.00 0.00 55 1008.8
20260904025503 11 292 3.2 3.2 0.00 0.00 0.00 56 1008.8
20260904024957 11 307 4.8 4.8 0.00 0.00 0.00 56 1008.8
20260904024453 12 317 6.4 8.0 0.00 0.00 0.00 55 1008.8
20260904023948 12 304 4.8 4.8 0.00 0.00 0.00 56 1008.5
20260904023445 12 328 4.8 4.8 0.00 0.00 0.00 55 1008.5
20260904022944 13 308 4.8 4.8 0.00 0.00 0.00 54 1008.6
20260904022440 13 314 4.8 4.8 0.00 0.00 0.00 52 1008.6
20260904021936 15 330 6.4 8.0 0.00 0.00 0.00 49 1008.6
20260904021432 15 320 4.8 4.8 0.00 0.00 0.00 47 1008.5
20260904020927 15 302 3.2 3.2 0.00 0.00 0.00 48 1008.4
20260904020422 16 312 3.2 3.2 0.00 0.00 0.00 46 1008.4
20260904015920 16 298 3.2 3.2 0.00 0.00 0.00 46 1008.9
20260904015417 16 331 3.2 3.2 0.00 0.00 0.00 46 1008.5
20260904014915 17 255 1.6 3.2 0.00 0.00 0.00 45 1008.4
20260904014411 17 284 4.8 4.8 0.00 0.00 0.00 44 1008.4
20260904013906 18 259 4.8 4.8 0.00 0.00 0.00 43 1008.2
20260904013402 18 288 4.8 4.8 0.00 0.00 0.00 42 1008.2
20260904012857 19 254 1.6 1.6 0.00 0.00 0.00 41 1008.2
20260904012351 20 291 6.4 8.0 0.00 0.00 0.00 40 1008.2
20260904011851 20 260 1.6 3.2 0.00 0.00 0.00 39 1008.2
20260904011346 20 267 4.8 4.8 0.00 0.00 0.00 39 1008.4
20260904010841 20 268 6.4 8.0 0.00 0.00 0.00 39 1008.6
20260904010338 20 297 4.8 8.0 0.00 0.00 0.00 38 1008.1
20260904005833 20 303 6.4 8.0 0.00 0.00 0.00 38 1008.1
20260904005328 21 297 14.5 14.5 0.00 0.00 0.00 36 1008.5